Location: *
(51.0333°S, 178.4667°E)
Time: 03:16:03
(UTC+00:00)

Cosmos 1674 Rocket - Pass Details

Date: 15 November 2019
Orbit: 602 x 631 km, 82.5° (Epoch: 14 December)

Event Time Altitude Azimuth Distance (km) Brightness Sun altitude
Rises 10:10:03 0° 196° (SSW) 2,910 8.7 -17.1°
Reaches altitude 10° 10:12:22 10° 202° (SSW) 2,000 7.5 -17.2°
Maximum altitude 10:16:33 43° 273° (W) 878 4.4 -17.5°
Enters shadow 10:19:00 22° 333° (NNW) 1,367 5.0 -17.6°
